Weather reports worldwide

Advertisment
Banjarmasin/Syamsudin Noor, Indonesia (96685): temperature & dewpoint: 16.02.2019 04:00:00 - 22.02.2019 04:00:00 (WITA)Banjarmasin/Syamsudin Noor, Indonesia (96685): wind speed: 16.02.2019 04:00:00 - 22.02.2019 04:00:00 (WITA)Banjarmasin/Syamsudin Noor, Indonesia (96685): wind direction: 16.02.2019 04:00:00 - 22.02.2019 04:00:00 (WITA)Banjarmasin/Syamsudin Noor, Indonesia (96685): reduced air pressure: 16.02.2019 04:00:00 - 22.02.2019 04:00:00 (WITA)Banjarmasin/Syamsudin Noor, Indonesia (96685): visibility: 16.02.2019 04:00:00 - 22.02.2019 04:00:00 (WITA)
Date & Time tt [°C] td [°C] ff [km/h] ff [kn] dd ppp [hPa] vv [km]
22.02.2019 04:00:00 - - - - - - -
22.02.2019 03:00:00 - - - - - - -
22.02.2019 02:00:00 26,6 24,1 8 4 E 1010,9 10
22.02.2019 01:00:00 26,0 24,0 4 2 E - 8
22.02.2019 00:00:00 26,0 24,0 2 1 SE - 10
21.02.2019 23:00:00 27,8 24,2 4 2 SE 1012,2 10
21.02.2019 22:00:00 28,0 25,0 - - - - 1,2
21.02.2019 21:00:00 29,0 25,0 4 2 SE - 8
21.02.2019 20:00:00 29,0 24,9 4 2 SE 1011,2 8
21.02.2019 19:00:00 - - - - - - -
21.02.2019 18:00:00 31,0 24,0 8 4 E - 9
21.02.2019 17:00:00 31,1 23,4 9 5 NNE 1009,4 10
21.02.2019 16:00:00 31,0 23,0 9 5 N - 10
21.02.2019 15:00:00 32,0 24,0 8 4 WNW - 10
21.02.2019 14:00:00 30,4 24,1 13 7 NNW 1011,3 10
21.02.2019 13:00:00 - - - - - - -
21.02.2019 12:00:00 30,0 24,0 13 7 NW - 10
21.02.2019 11:00:00 29,0 23,5 15 8 NNW 1013,8 10
21.02.2019 10:00:00 28,0 24,0 5 3 NNE - 10
21.02.2019 09:00:00 26,0 23,0 11 6 NE - 10
21.02.2019 08:00:00 25,4 22,4 5 3 E 1014,1 10
21.02.2019 07:00:00 24,0 22,0 5 3 ESE - 10
21.02.2019 06:00:00 24,0 23,0 13 7 N - 10
21.02.2019 05:00:00 24,8 22,3 24 13 WNW 1012,9 10
21.02.2019 04:00:00 - - - - - - -
21.02.2019 03:00:00 - - - - - - -
21.02.2019 02:00:00 27,0 25,7 9 5 ESE 1012,2 10
21.02.2019 01:00:00 26,0 25,0 11 6 SE - 10
21.02.2019 00:00:00 26,0 26,0 11 6 ESE - 10
20.02.2019 23:00:00 28,0 25,8 9 5 SSE 1013,2 10
20.02.2019 22:00:00 - - - - - - -
20.02.2019 21:00:00 29,0 25,0 9 5 SE - 10
20.02.2019 20:00:00 30,0 25,4 5 3 SW 1011,6 10
20.02.2019 19:00:00 32,0 24,0 13 7 E - 10
20.02.2019 18:00:00 33,0 24,0 8 4 NNE - 10
20.02.2019 17:00:00 33,4 21,7 5 3 N 1009,0 10
20.02.2019 16:00:00 34,0 24,0 11 6 N - 10
20.02.2019 15:00:00 35,0 23,0 13 7 N - 10
20.02.2019 14:00:00 34,0 23,3 15 8 N 1011,3 10
20.02.2019 13:00:00 - - - - - - -
20.02.2019 12:00:00 32,0 25,0 13 7 NE - 10
20.02.2019 11:00:00 31,7 24,2 22 12 NE 1013,3 10
20.02.2019 10:00:00 30,0 25,0 16 9 N - 10
20.02.2019 09:00:00 - - - - - - -
20.02.2019 08:00:00 26,3 24,5 0 0 N 1013,8 10
20.02.2019 07:00:00 - - - - - - -
20.02.2019 06:00:00 25,0 24,0 4 2 E - 10
20.02.2019 05:00:00 25,8 24,4 5 3 ENE 1011,0 7
20.02.2019 04:00:00 - - - - - - -
20.02.2019 03:00:00 - - - - - - -
20.02.2019 02:00:00 26,6 24,7 4 2 E 1012,1 10
20.02.2019 01:00:00 - - - - - - -
20.02.2019 00:00:00 - - - - - - -
19.02.2019 23:00:00 27,0 24,8 0 0 N 1013,9 7
19.02.2019 22:00:00 - - - - - - -
19.02.2019 21:00:00 - - - - - - -
19.02.2019 20:00:00 27,8 25,8 11 6 SE 1011,9 7
19.02.2019 19:00:00 - - - - - - -
19.02.2019 18:00:00 34,0 24,0 5 3 S - 10
19.02.2019 17:00:00 34,0 23,6 8 4 N 1009,3 10
19.02.2019 16:00:00 - - - - - - -
19.02.2019 15:00:00 - - - - - - -
19.02.2019 14:00:00 33,5 23,5 15 8 N 1010,8 10
19.02.2019 13:00:00 33,0 24,0 15 8 NNE - 10
19.02.2019 12:00:00 - - - - - - -
19.02.2019 11:00:00 32,1 24,1 15 8 NE 1013,7 10
19.02.2019 10:00:00 - - - - - - -
19.02.2019 09:00:00 28,0 25,0 11 6 NE - 10
19.02.2019 08:00:00 25,8 24,4 8 4 ENE 1013,1 10
19.02.2019 07:00:00 25,0 24,0 8 4 NE - 5
19.02.2019 06:00:00 25,0 24,0 0 0 N - 7
19.02.2019 05:00:00 25,4 24,6 0 0 N 1011,1 8
19.02.2019 04:00:00 - - - - - - -
19.02.2019 03:00:00 - - - - - - -
19.02.2019 02:00:00 26,2 24,0 0 0 N 1012,1 8
19.02.2019 01:00:00 - - - - - - -
19.02.2019 00:00:00 26,0 25,0 0 0 N - 10
18.02.2019 23:00:00 27,2 24,7 0 0 N 1014,0 8
18.02.2019 22:00:00 - - - - - - -
18.02.2019 21:00:00 - - - - - - -
18.02.2019 20:00:00 28,0 24,5 8 4 N 1011,5 10
18.02.2019 19:00:00 28,0 25,0 11 6 NW - 10
18.02.2019 18:00:00 - - - - - - -
18.02.2019 17:00:00 31,4 23,6 11 6 NNE 1010,2 10
18.02.2019 16:00:00 32,0 24,0 11 6 N - 10
18.02.2019 15:00:00 - - - - - - -
18.02.2019 14:00:00 31,6 24,6 11 6 NNE 1011,7 10
18.02.2019 13:00:00 - - - - - - -
18.02.2019 12:00:00 30,0 24,0 13 7 N - 10
18.02.2019 11:00:00 28,6 23,9 11 6 NW 1014,6 10
18.02.2019 10:00:00 - - - - - - -
18.02.2019 09:00:00 - - - - - - -
18.02.2019 08:00:00 25,4 24,7 8 4 NNE 1013,7 10
18.02.2019 07:00:00 24,0 24,0 13 7 NNE - 8
18.02.2019 06:00:00 24,0 24,0 9 5 WNW - 10
18.02.2019 05:00:00 24,8 24,5 8 4 WNW 1011,9 5
18.02.2019 04:00:00 - - - - - - -
18.02.2019 03:00:00 - - - - - - -
18.02.2019 02:00:00 25,4 24,9 13 7 ENE 1012,2 7
18.02.2019 01:00:00 25,0 25,0 11 6 ENE - 4,6
18.02.2019 00:00:00 25,0 25,0 9 5 ENE - 7
17.02.2019 23:00:00 25,6 25,3 2 1 N 1013,1 9
17.02.2019 22:00:00 25,0 25,0 5 3 NNE - 9
17.02.2019 21:00:00 25,0 25,0 2 1 S - 8
17.02.2019 20:00:00 25,8 25,3 8 4 NW 1011,0 10
17.02.2019 19:00:00 26,0 25,0 5 3 ENE - 9
17.02.2019 18:00:00 - - - - - - -
17.02.2019 17:00:00 27,0 25,4 5 3 W 1009,3 8
17.02.2019 16:00:00 27,0 25,0 5 3 SSE - 10
17.02.2019 15:00:00 28,0 25,0 9 5 SSE - 10
17.02.2019 14:00:00 28,2 25,5 8 4 S 1010,8 10
17.02.2019 13:00:00 27,0 25,0 13 7 ESE - 10
17.02.2019 12:00:00 25,0 24,0 8 4 W - 7
17.02.2019 11:00:00 24,2 23,1 8 4 W 1013,4 4,0
17.02.2019 10:00:00 28,0 24,0 8 4 NNE - 10
17.02.2019 09:00:00 27,0 24,0 5 3 NNE - 10
17.02.2019 08:00:00 25,4 23,7 5 3 NNE 1012,8 10
17.02.2019 07:00:00 25,0 24,0 8 4 E - 10
17.02.2019 06:00:00 - - - - - - -
17.02.2019 05:00:00 25,0 24,7 5 3 ESE 1011,4 7
17.02.2019 04:00:00 - - - - - - -
17.02.2019 03:00:00 - - - - - - -
17.02.2019 02:00:00 26,2 25,1 0 0 N 1011,5 8
17.02.2019 01:00:00 25,0 25,0 9 5 W - 10
17.02.2019 00:00:00 25,0 25,0 5 3 W - 10
16.02.2019 23:00:00 26,4 25,0 5 3 SE 1013,0 8
16.02.2019 22:00:00 26,0 24,0 0 0 N - 8
16.02.2019 21:00:00 - - - - - - -
16.02.2019 20:00:00 26,4 23,9 4 2 SSW 1011,5 10
16.02.2019 19:00:00 - - - - - - -
16.02.2019 18:00:00 - - - - - - -
16.02.2019 17:00:00 27,0 23,7 46 25 ESE 1009,8 0,5
16.02.2019 16:00:00 - - - - - - -
16.02.2019 15:00:00 - - - - - - -
16.02.2019 14:00:00 33,0 24,3 13 7 N 1010,4 10
16.02.2019 13:00:00 32,0 25,0 9 5 NNE - 10
16.02.2019 12:00:00 - - - - - - -
16.02.2019 11:00:00 29,0 24,6 9 5 N 1013,6 10
16.02.2019 10:00:00 28,0 25,0 11 6 NNW - 10
16.02.2019 09:00:00 - - - - - - -
16.02.2019 08:00:00 27,4 24,2 13 7 WNW 1013,7 10
16.02.2019 07:00:00 25,0 24,0 4 2 - - 7
16.02.2019 06:00:00 - - - - - - -
16.02.2019 05:00:00 26,0 24,1 8 4 N 1011,8 10
16.02.2019 04:00:00 - - - - - - -

tt = temperature
td = dewpoint
ff = wind speed
dd = wind direction
ppp = reduced air pressure
vv = visibility

Next stations